Location: Unspecified
(0.0000°N, 0.0000°E)
Time: 00:00:53
(UTC+02:00)

Daily predictions for brighter satellites

Satellite Brightness Start Highest point End
(mag) Time Altitude Azimuth Time Altitude Azimuth Time Altitude Azimuth
Cosmos 2360 Rocket 3.4 05:35:49 37° E 05:35:49 37° E 05:40:28 10° NE
Cosmos 2322 Rocket 4.2 05:48:55 17° NNW 05:48:55 17° NNW 05:50:11 10° N
Ariane H10+ 3.1 05:49:08 71° WNW 05:50:16 87° N 06:13:40 10° E
Cosmos 1655 Rocket 4.4 05:47:26 10° N 05:53:43 60° E 05:59:05 14° SSE
Ariane H10-3 3.5 05:52:48 66° WNW 05:53:54 80° N 06:39:13 10° E
Ariane H10-3 3.5 05:52:48 67° WNW 05:53:54 80° N 06:39:13 10° E
Ariane H10-3 3.5 05:52:48 66° WNW 05:53:55 80° N 06:39:13 10° E
BREEZE M DEB (TANK) 4.0 05:56:54 44° SE 05:57:43 47° ESE 06:09:17 10° NE
Ariane 42L Rocket 4.4 06:04:42 21° NNE 06:04:42 21° NNE 06:07:34 10° ENE
ADEOS II 2.0 06:00:29 10° NNE 06:05:30 81° NE 06:05:30 81° NE
Cosmos 2221 3.7 06:07:38 35° NNE 06:07:38 35° NNE 06:10:08 10° N
OTV 4 3.5 06:12:22 16° NE 06:12:22 16° NE 06:13:04 10° NE
CZ-3A R/B 3.1 06:13:21 35° NW 06:13:21 35° NW 06:23:30 10° NNE
SL-16 R/B 4.2 06:19:46 13° NW 06:19:46 13° NW 06:20:42 10° NNW
Ariane 42P Rocket 3.5 06:20:26 31° SE 06:20:26 31° SE 06:24:11 10° E
COSMOS 2428 3.7 06:15:33 17° S 06:19:36 43° ESE 06:24:55 10° NE
Cosmos 1674 2.9 06:24:17 10° N 06:27:27 62° NNE 06:27:27 62° NNE
Cosmos 2026 Rocket 4.0 06:22:01 10° NNW 06:28:04 55° W 06:30:17 37° SSW
NOSS 3-4 (A) 4.1 06:21:04 10° NNW 06:28:30 74° ENE 06:36:12 10° SSE
Cosmos 2112 Rocket 4.3 06:25:28 24° S 06:28:32 63° ESE 06:33:38 10° NNE
NOSS 3-4 (C) 4.1 06:21:11 10° NNW 06:28:40 73° ENE 06:36:22 10° SSE
Ariane Rocket 3.5 06:26:38 10° NNE 06:31:33 57° ESE 06:36:31 10° S
Cosmos 2322 3.8 06:32:12 47° WSW 06:33:03 51° WNW 06:38:34 10° N
Cosmos 1125 Rocket 3.5 06:32:04 10° N 06:37:14 82° ENE 06:42:27 10° SSE
Hubble Space Telescope 1.7 06:37:23 34° NW 06:37:39 35° NNW 06:41:27 10° NE
ADEOS Rocket 3.6 06:31:32 10° N 06:38:28 54° WNW 06:43:34 21° SW
Cosmos 2237 4.2 06:35:57 20° S 06:39:59 81° ESE 06:45:42 10° NNE
ARIANE 5 DEB (SYLDA) 3.8 06:40:26 25° WNW 06:43:43 64° N 06:47:26 10° E
GPS 2-05 Rocket1 3.3 06:46:08 39° SSE 06:46:08 39° SSE 06:48:25 10° SE
Thor Agena Rocket 3.6 06:40:44 10° S 06:45:41 52° WSW 06:50:35 10° NNW
SL-8 R/B 3.5 06:46:00 10° NW 06:50:45 75° SW 06:55:31 10° SE
SJ-6F 4.3 06:48:12 10° N 06:52:16 81° WNW 06:55:34 15° SSW
ARIANE 5 DEB (SYLDA) 3.5 06:53:24 19° SSE 06:53:24 19° SSE 06:54:14 10° SE
Tiangong 1 1.3 06:53:44 46° WNW 06:53:57 48° NW 06:56:55 10° NNE
Cosmos 1515 Rocket 4.3 06:50:43 10° S 06:55:05 54° E 06:59:25 10° NNE
Cosmos 1680 Rocket 3.7 06:52:45 26° SW 06:55:24 48° WNW 07:00:24 10° N
Ariane H10 4.3 06:55:59 15° NW 06:57:29 24° N 07:00:42 10° ENE
Cosmos 1805 Rocket 4.3 06:53:37 10° N 06:57:53 54° E 07:02:11 10° SSE
MOS 1 Rocket 3.1 06:53:44 10° N 06:58:24 72° WNW 07:02:51 10° SSW
Meteor 2-20 4.4 06:54:31 10° NNW 07:00:33 68° W 07:06:39 10° S
Meteor 1-31 Rocket 3.8 06:59:01 10° NNW 07:02:13 25° WNW 07:02:34 25° W
Cosmos 2227 4.1 07:01:56 10° NNW 07:07:39 71° WSW 07:13:20 10° S
CZ-3 Stage 3 4.2 07:04:01 20° WSW 07:07:53 37° S 07:35:10 10° SE
Cosmos 1328 Rocket 3.5 07:04:08 10° SSW 07:08:31 65° W 07:12:55 10° N
Cosmos 2058 2.8 07:05:26 10° N 07:09:38 84° W 07:13:50 10° S
Cosmos 1328 4.0 07:06:07 10° NNW 07:09:58 46° W 07:13:50 10° SSW
Cosmos 1417 Rocket 4.4 07:04:25 10° S 07:10:34 82° W 07:16:43 10° N
USA 116 3.5 07:08:26 10° S 07:11:28 39° WSW 07:14:22 10° NNW
Cosmos 2228 Rocket 3.4 07:07:33 10° SSW 07:11:39 42° W 07:15:51 10° NNW
Cosmos 1346 3.9 07:12:21 10° N 07:15:17 52° E 07:18:15 10° SSE
BREEZE-M DEB (TANK) 2.3 07:13:42 10° NW 07:16:15 64° SW 07:22:41 10° SSE
Cosmos 405 3.1 07:13:08 10° SSW 07:16:42 58° W 07:20:15 10° N
Sich 1 3.7 07:13:53 10° N 07:18:08 58° E 07:22:27 10° SSE
Cosmos 2360 Rocket 3.8 07:17:39 13° W 07:19:03 14° WNW 07:21:58 10° NW
Ariane H10 2.9 07:20:57 18° WSW 07:22:15 35° S 07:24:27 10° ESE
OAO 3 Rocket 4.3 07:18:12 10° NW 07:22:39 44° NE 07:27:06 10° ESE
CZ-4 R/B 2.5 07:19:00 10° NNE 07:22:56 46° ESE 07:26:49 10° S
Meteor 1-11 4.2 07:18:42 10° NNW 07:24:19 71° W 07:30:03 10° S
Cosmos 1666 Rocket 3.5 07:21:03 10° N 07:25:23 90° WNW 07:29:44 10° S
Cosmos 1980 4.3 07:20:45 10° S 07:26:19 60° ESE 07:31:51 10° NNE
IRS-1A Rocket 4.4 07:22:56 10° N 07:28:42 71° WNW 07:34:35 10° SSW
Cosmos 2237 Rocket 2.8 07:25:23 10° S 07:30:55 60° ESE 07:36:29 10° NNE
RESURS DK-1 2.3 07:27:38 10° NNW 07:31:45 90° SW 07:35:53 10° SSE
Cosmos 1437 Rocket 4.0 07:31:46 10° SW 07:34:41 21° W 07:37:36 10° NW
Cosmos 292 Rocket 3.8 07:30:56 10° SSW 07:35:41 61° WNW 07:40:24 10° N
OAO 2 Rocket 4.0 07:31:29 10° WSW 07:36:23 42° NW 07:41:10 10° NNE
COSMO-SKYMED 1 3.1 07:32:18 10° SSE 07:36:36 64° E 07:40:53 10° N
Centaur D-1AR AC-48 3.7 07:38:38 10° W 07:43:02 41° S 07:58:08 10° ESE
Ariane H10 4.2 07:39:20 10° W 07:44:41 88° S 08:00:32 10° E
ATLAS 2AS CENTAUR RB 4.4 02:48:50 10° WNW 08:15:06 61° SSW 08:21:18 10° ESE
